Location: Zlin
(49.2330°N, 17.6670°E)
Time: 16:05:00
(UTC+02:00)

ISS - Visible Passes

Search period start: 26 June 2022 00:00
Search period end: 06 July 2022 00:00
Orbit: 415 x 420 km, 51.6° (Epoch: 26 June)

Date Brightness Start Highest point End Pass type
(mag) Time Alt. Az. Time Alt. Az. Time Alt. Az.
29 Jun -1.8 03:23:05 12° S 03:25:12 19° SE 03:27:39 10° E visible
30 Jun -1.4 02:37:20 12° SSE 02:37:59 12° SE 02:39:30 10° ESE visible
01 Jul -3.0 03:24:41 16° SW 03:27:05 40° SSE 03:30:18 10° ENE visible
02 Jul -2.5 02:39:13 24° S 02:40:09 28° SE 02:43:07 10° E visible
03 Jul -1.9 01:53:54 19° SE 01:53:54 19° SE 01:55:58 10° E visible
03 Jul -3.8 03:26:53 12° WSW 03:29:57 81° SSE 03:33:22 10° ENE visible
04 Jul -3.7 02:41:42 27° SW 02:43:19 60° SSE 02:46:42 10° ENE visible
05 Jul -3.3 01:56:40 41° SSE 01:56:56 42° SSE 02:00:11 10° ENE visible
05 Jul -3.3 03:30:23 10° W 03:33:45 65° NNW 03:37:10 10° ENE visible
